FW7705 Weather Reports


Display with metric or nautical units.
time (UTC)temp
F
wind
direction
speed
MPH
gust
MPH
rain 1hr
in
rain 24hr
in
rain mn
in
humidity
%
barometer
mb
20260509171146 50 171 0.0 1.0 0.00 0.32 0.32 96 1008.0
20260509170643 50 183 1.0 2.0 0.00 0.32 0.32 96 1008.0
20260509170138 50 142 0.0 1.0 0.00 0.32 0.32 96 1008.0
20260509165637 50 163 1.0 2.0 0.00 0.32 0.32 96 1008.0
20260509165133 50 195 2.0 2.0 0.00 0.32 0.32 96 1008.1
20260509164629 50 156 2.0 2.0 0.00 0.32 0.32 96 1008.3
20260509164125 50 185 3.0 3.0 0.00 0.32 0.32 96 1008.1
20260509163623 50 238 4.0 6.0 0.00 0.32 0.32 96 1008.4
20260509163118 50 148 2.0 2.0 0.00 0.32 0.32 96 1008.4
20260509162616 50 162 1.0 1.0 0.00 0.32 0.32 96 1008.4
20260509162111 50 258 2.0 3.0 0.00 0.32 0.32 96 1008.3
20260509161608 50 142 1.0 2.0 0.05 0.32 0.32 96 1008.4
20260509161108 50 146 1.0 2.0 0.05 0.32 0.32 96 1008.3
20260509160604 50 157 1.0 2.0 0.07 0.31 0.31 96 1008.6
20260509160059 50 179 1.0 2.0 0.07 0.31 0.31 95 1008.5
20260509155556 50 176 3.0 6.0 0.07 0.31 0.31 94 1008.7
20260509155053 50 233 3.0 4.0 0.00 0.30 0.30 94 1008.5
20260509154548 50 173 1.0 2.0 0.05 0.30 0.30 95 1008.5
20260509154046 50 201 3.0 3.0 0.05 0.30 0.30 94 1008.6
20260509153543 50 148 1.0 1.0 0.00 0.29 0.29 95 1008.8
20260509153040 50 138 0.0 0.0 0.00 0.29 0.29 95 1008.7
20260509152536 50 137 1.0 1.0 0.00 0.29 0.29 95 1008.5
20260509152033 50 147 3.0 4.0 0.00 0.29 0.29 95 1008.7
20260509151529 50 76 4.0 7.0 0.00 0.29 0.29 95 1008.7
20260509151027 50 187 4.0 4.0 0.00 0.29 0.29 95 1008.8
20260509150524 50 195 1.0 1.0 0.07 0.29 0.29 96 1008.7
20260509150023 50 204 3.0 4.0 0.07 0.29 0.29 96 1008.8
20260509145518 50 264 2.0 3.0 0.00 0.28 0.28 96 1008.8
20260509145013 50 165 1.0 2.0 0.00 0.28 0.28 96 1008.8
20260509144510 50 172 2.0 2.0 0.05 0.28 0.28 97 1008.9
20260509144008 49 141 0.0 0.0 0.05 0.28 0.28 97 1009.1
20260509143505 49 148 1.0 2.0 0.00 0.27 0.27 97 1009.1
20260509143002 49 163 1.0 1.0 0.00 0.27 0.27 97 1009.3
20260509142458 49 170 2.0 2.0 0.07 0.27 0.27 98 1009.4
20260509141953 49 126 4.0 6.0 0.07 0.27 0.27 97 1009.3
20260509141449 48 128 1.0 1.0 0.05 0.26 0.26 98 1009.1
20260509140947 48 138 1.0 1.0 0.05 0.26 0.26 98 1009.4
20260509140443 48 155 0.0 0.0 0.07 0.25 0.25 98 1009.4
20260509135942 48 202 1.0 2.0 0.07 0.25 0.25 98 1009.4
20260509135439 48 177 1.0 1.0 0.07 0.25 0.25 98 1009.3
20260509134936 48 177 0.0 0.0 0.00 0.24 0.24 98 1009.1
20260509134433 48 207 2.0 2.0 0.07 0.24 0.24 98 1009.4
20260509133931 48 151 0.0 0.0 0.07 0.24 0.24 98 1009.4
20260509133426 48 153 0.0 0.0 0.05 0.23 0.23 98 1009.4
20260509132925 48 151 0.0 0.0 0.05 0.23 0.23 98 1009.6
20260509132423 48 188 1.0 1.0 0.07 0.22 0.22 98 1009.4
20260509131920 48 151 3.0 3.0 0.07 0.22 0.22 98 1009.5
20260509131417 48 168 2.0 2.0 0.05 0.21 0.21 98 1009.4
20260509130914 48 182 2.0 2.0 0.05 0.21 0.21 98 1009.6
20260509130409 48 139 1.0 1.0 0.00 0.20 0.20 98 1009.3
20260509125906 48 165 1.0 1.0 0.07 0.20 0.20 98 1009.5
20260509125403 47 151 1.0 1.0 0.07 0.20 0.20 98 1009.5
20260509124859 47 150 1.0 2.0 0.12 0.19 0.19 98 1009.7
20260509124356 47 197 0.0 0.0 0.12 0.19 0.19 98 1009.7
20260509123854 47 170 1.0 1.0 0.12 0.18 0.18 98 1009.6
20260509123351 47 133 0.0 0.0 0.05 0.17 0.17 99 1009.5
20260509122846 47 152 2.0 3.0 0.07 0.16 0.16 99 1009.7
20260509122343 47 177 0.0 1.0 0.12 0.16 0.16 99 1010.0
20260509121840 47 105 0.0 0.0 0.05 0.15 0.15 99 1009.5
20260509121337 46 64 1.0 2.0 0.00 0.14 0.14 99 1009.7
20260509120836 46 119 1.0 1.0 0.07 0.14 0.14 99 1009.7
20260509120333 46 103 0.0 0.0 0.07 0.14 0.14 99 1009.7
20260509115831 46 250 2.0 2.0 0.05 0.13 0.13 99 1009.9
20260509115328 46 169 0.0 0.0 0.12 0.13 0.13 99 1009.7
20260509114826 46 152 1.0 2.0 0.14 0.12 0.12 99 1009.8
20260509114324 46 162 1.0 1.0 0.12 0.11 0.11 99 1009.8
20260509113823 45 160 0.0 0.0 0.12 0.10 0.10 99 1009.8
20260509113319 45 152 0.0 0.0 0.12 0.09 0.09 99 1010.0
20260509112816 44 153 0.0 0.0 0.12 0.08 0.08 99 1009.8
20260509112314 44 152 0.0 0.0 0.12 0.07 0.07 99 1009.9
20260509111810 44 153 0.0 1.0 0.05 0.06 0.06 99 1009.7
20260509111307 44 152 0.0 0.0 0.12 0.05 0.05 98 1009.8
20260509110805 44 153 0.0 0.0 0.19 0.05 0.05 98 1009.6
20260509110301 45 148 0.0 0.0 0.12 0.04 0.04 98 1009.6
20260509105759 45 148 1.0 2.0 0.05 0.02 0.02 99 1009.4
20260509105257 45 130 0.0 1.0 0.05 0.02 0.02 99 1009.7
20260509104753 44 156 0.0 1.0 0.00 0.01 0.01 99 1009.6
20260509104250 44 176 0.0 0.0 0.00 0.01 0.01 98 1009.8
20260509103749 44 155 0.0 0.0 0.00 0.01 0.01 99 1009.5
20260509103245 44 118 1.0 1.0 0.00 0.01 0.01 99 1009.7
20260509102744 42 117 2.0 2.0 0.00 0.01 0.01 99 1009.6
20260509102240 41 128 0.0 0.0 0.00 0.01 0.01 98 1009.7
20260509101737 41 144 0.0 0.0 0.00 0.01 0.01 98 1009.7
20260509101233 41 85 0.0 0.0 0.00 0.01 0.01 98 1009.8
20260509100731 41 85 0.0 0.0 0.00 0.01 0.01 98 1009.6
20260509100228 41 85 0.0 0.0 0.00 0.01 0.01 98 1009.1
20260509095724 41 85 0.0 0.0 0.00 0.01 0.01 98 1009.4
20260509095222 40 85 0.0 0.0 0.00 0.01 0.01 98 1009.6
20260509094718 40 85 0.0 0.0 0.00 0.01 0.01 97 1009.6
20260509094215 40 85 0.0 0.0 0.00 0.01 0.01 97 1009.5
20260509093714 40 85 0.0 0.0 0.07 0.01 0.01 97 1009.5
20260509093210 40 85 0.0 0.0 0.07 0.01 0.01 97 1009.6
20260509092708 40 85 0.0 0.0 0.07 0.01 0.01 97 1009.4
20260509092206 40 85 0.0 0.0 0.00 0.00 0.00 97 1009.7
20260509091704 40 85 0.0 0.0 0.00 0.00 0.00 97 1009.6
20260509091200 40 85 0.0 0.0 0.00 0.00 0.00 97 1009.5
20260509090658 40 85 0.0 0.0 0.00 0.00 0.00 97 1009.6
20260509090155 40 85 0.0 0.0 0.00 0.00 0.00 97 1009.8
20260509085652 40 85 0.0 0.0 0.00 0.00 0.00 96 1009.6
20260509085148 40 85 0.0 0.0 0.00 0.00 0.00 96 1009.7
20260509084646 40 85 0.0 0.0 0.00 0.00 0.00 96 1009.9
20260509084143 40 85 0.0 0.0 0.00 0.00 0.00 96 1009.6
20260509083641 40 85 1.0 1.0 0.00 0.00 0.00 96 1009.7
20260509083136 40 85 0.0 0.0 0.00 0.00 0.00 96 1009.7
20260509082634 40 85 0.0 0.0 0.00 0.00 0.00 96 1009.6
20260509082130 40 85 0.0 0.0 0.00 0.00 0.00 96 1010.1
20260509081628 40 85 0.0 0.0 0.00 0.00 0.00 96 1010.0
20260509081125 40 85 0.0 0.0 0.00 0.00 0.00 95 1010.3
20260509080623 40 84 1.0 1.0 0.00 0.00 0.00 95 1009.9
20260509080120 40 85 0.0 0.0 0.00 0.00 0.00 95 1010.2
20260509075618 40 85 0.0 0.0 0.00 0.00 0.00 94 1010.2
20260509075116 41 85 0.0 0.0 0.00 0.00 0.00 94 1010.0
20260509074612 41 85 0.0 0.0 0.00 0.00 0.00 93 1010.0
20260509074109 40 85 0.0 0.0 0.00 0.00 0.00 93 1010.1
20260509073606 40 85 0.0 0.0 0.00 0.00 0.00 93 1010.0
20260509073102 40 85 0.0 0.0 0.00 0.00 0.00 94 1010.2
20260509072559 40 85 0.0 0.0 0.00 0.00 0.00 94 1010.1
20260509072055 40 85 0.0 0.0 0.00 0.00 0.00 93 1010.0
20260509071552 40 85 0.0 0.0 0.00 0.00 0.00 94 1010.0
20260509071049 40 85 0.0 0.0 0.00 0.00 0.00 94 1010.1
20260509070547 40 85 0.0 0.0 0.00 0.00 0.00 94 1010.1
20260509070043 40 85 0.0 0.0 0.00 0.00 0.00 94 1010.3
20260509065538 40 85 0.0 0.0 0.00 0.00 0.00 93 1010.0
20260509065035 40 85 0.0 0.0 0.00 0.00 0.00 93 1010.2
20260509064533 40 85 0.0 0.0 0.00 0.00 0.00 92 1010.2
20260509064031 40 85 0.0 0.0 0.00 0.00 0.00 91 1010.3
20260509063531 40 85 0.0 0.0 0.00 0.00 0.00 91 1010.4
20260509063029 40 85 0.0 0.0 0.00 0.00 0.00 89 1010.4
20260509062526 40 85 0.0 0.0 0.00 0.00 0.00 89 1010.5
20260509062024 40 85 0.0 0.0 0.00 0.00 0.00 89 1010.5
20260509061520 40 85 0.0 0.0 0.00 0.00 0.00 89 1010.7
20260509061018 40 85 0.0 0.0 0.00 0.00 0.00 87 1010.7
20260509060515 40 85 0.0 0.0 0.00 0.00 0.00 87 1010.7
20260509060011 40 85 0.0 0.0 0.00 0.00 0.00 87 1010.7
20260509055506 40 85 0.0 0.0 0.00 0.00 0.00 86 1010.6
20260509055003 40 85 0.0 0.0 0.00 0.00 0.00 85 1010.8
20260509054459 40 85 0.0 0.0 0.00 0.00 0.00 87 1011.0
20260509053958 40 85 0.0 0.0 0.00 0.00 0.00 86 1010.8
20260509053455 40 85 0.0 0.0 0.00 0.00 0.00 84 1010.9
20260509052952 40 85 0.0 0.0 0.00 0.00 0.00 84 1010.9
20260509052450 40 85 0.0 0.0 0.00 0.00 0.00 85 1010.9
20260509051948 40 85 0.0 0.0 0.00 0.00 0.00 86 1011.0
20260509051445 39 85 0.0 0.0 0.00 0.00 0.00 85 1011.1
20260509050942 39 85 0.0 0.0 0.00 0.00 0.00 85 1011.0
20260509050439 39 85 0.0 0.0 0.00 0.00 0.00 85 1010.9
20260509045935 40 85 0.0 0.0 0.00 0.00 0.00 85 1010.8
20260509045433 40 85 0.0 0.0 0.00 0.00 0.00 83 1010.9
20260509044929 40 85 1.0 1.0 0.00 0.00 0.00 84 1010.9
20260509044428 39 85 0.0 0.0 0.00 0.00 0.00 85 1011.2
20260509043924 39 85 0.0 0.0 0.00 0.00 0.00 84 1011.1
20260509043420 39 85 0.0 0.0 0.00 0.00 0.00 83 1011.0
20260509042916 39 85 0.0 0.0 0.00 0.00 0.00 83 1010.9
20260509042413 39 85 0.0 0.0 0.00 0.00 0.00 84 1011.2
20260509041909 39 85 0.0 0.0 0.00 0.00 0.00 84 1011.2
20260509041406 39 85 0.0 0.0 0.00 0.00 0.00 84 1011.2
20260509040904 39 85 0.0 0.0 0.00 0.00 0.00 86 1011.2
20260509040402 38 85 0.0 0.0 0.00 0.00 0.00 86 1011.2
20260509035858 38 85 0.0 0.0 0.00 0.06 0.06 87 1011.3
20260509035355 38 85 0.0 0.0 0.00 0.06 0.06 86 1011.2
20260509034852 39 85 0.0 0.0 0.00 0.06 0.06 84 1011.1
20260509034349 39 85 0.0 0.0 0.00 0.06 0.06 84 1011.5
20260509033846 39 85 0.0 0.0 0.00 0.06 0.06 84 1011.2
20260509033344 39 85 0.0 0.0 0.00 0.06 0.06 85 1011.1
20260509032840 38 85 0.0 0.0 0.00 0.06 0.06 85 1011.0
20260509032337 39 85 0.0 0.0 0.00 0.06 0.06 82 1011.0
20260509031835 40 85 0.0 0.0 0.00 0.06 0.06 81 1011.1
20260509031332 40 85 0.0 0.0 0.00 0.06 0.06 79 1011.3
20260509030830 40 85 0.0 0.0 0.00 0.06 0.06 80 1011.2
20260509030328 40 85 0.0 0.0 0.00 0.06 0.06 79 1011.5
20260509025824 41 85 0.0 0.0 0.00 0.06 0.06 78 1011.3
20260509025320 41 85 0.0 0.0 0.00 0.06 0.06 77 1011.3
20260509024815 41 85 0.0 0.0 0.00 0.06 0.06 78 1011.3
20260509024312 41 85 0.0 0.0 0.00 0.06 0.06 79 1011.5
20260509023809 43 85 0.0 0.0 0.00 0.06 0.06 74 1011.4
20260509023306 44 85 0.0 0.0 0.00 0.06 0.06 66 1011.3
20260509022802 44 85 0.0 0.0 0.00 0.06 0.06 69 1011.1
20260509022300 43 85 1.0 2.0 0.00 0.06 0.06 70 1011.3
20260509021757 43 85 0.0 1.0 0.00 0.06 0.06 71 1011.3
20260509021254 43 85 0.0 0.0 0.00 0.06 0.06 73 1011.5
20260509020752 43 85 0.0 0.0 0.00 0.06 0.06 78 1011.5
20260509020249 43 85 0.0 0.0 0.00 0.06 0.06 80 1011.5
20260509015747 43 85 0.0 0.0 0.00 0.06 0.06 78 1011.8
20260509015245 43 85 0.0 0.0 0.00 0.06 0.06 72 1011.3
20260509014741 44 85 0.0 0.0 0.00 0.06 0.06 73 1011.2
20260509014238 44 85 0.0 0.0 0.00 0.06 0.06 76 1011.1
20260509013735 44 85 0.0 0.0 0.00 0.06 0.06 77 1011.2
20260509013230 45 85 0.0 0.0 0.00 0.06 0.06 74 1011.3
20260509012727 45 85 0.0 0.0 0.00 0.06 0.06 68 1011.3
20260509012224 45 85 0.0 0.0 0.00 0.06 0.06 73 1011.3
20260509011721 45 85 0.0 0.0 0.00 0.06 0.06 73 1011.1
20260509011219 45 85 0.0 0.0 0.00 0.06 0.06 71 1010.8
20260509010717 45 85 0.0 0.0 0.00 0.06 0.06 72 1010.9
20260509010212 45 85 0.0 0.0 0.00 0.06 0.06 74 1010.9
20260509005710 45 85 0.0 0.0 0.00 0.06 0.06 74 1010.8
20260509005207 46 85 0.0 0.0 0.00 0.06 0.06 74 1010.8
20260509004702 46 85 0.0 0.0 0.00 0.06 0.06 73 1010.5
20260509004200 46 85 0.0 0.0 0.00 0.06 0.06 71 1010.7
20260509003658 46 85 0.0 0.0 0.00 0.06 0.06 70 1010.5
20260509003155 46 85 0.0 0.0 0.00 0.06 0.06 69 1010.6
20260509002652 46 85 0.0 0.0 0.00 0.06 0.06 69 1010.6
20260509002149 47 85 0.0 0.0 0.00 0.06 0.06 68 1010.5
20260509001647 47 85 0.0 0.0 0.00 0.06 0.06 65 1010.4
20260509001142 48 85 0.0 0.0 0.00 0.06 0.06 62 1010.3
20260509000641 48 85 1.0 1.0 0.00 0.06 0.06 61 1010.1
20260509000137 49 85 1.0 1.0 0.00 0.06 0.06 60 1010.4
20260508235635 50 84 1.0 1.0 0.00 0.06 0.06 58 1010.4
20260508235131 51 84 0.0 0.0 0.00 0.06 0.06 53 1010.2
20260508234629 51 91 0.0 1.0 0.00 0.06 0.06 52 1010.3
20260508234125 51 94 0.0 1.0 0.00 0.06 0.06 51 1010.0
20260508233624 51 61 1.0 2.0 0.00 0.06 0.06 50 1009.9
20260508233122 52 46 0.0 1.0 0.00 0.06 0.06 50 1010.1
20260508232619 52 53 1.0 1.0 0.00 0.06 0.06 50 1010.0
20260508232115 52 58 2.0 2.0 0.00 0.06 0.06 52 1010.0
20260508231613 53 60 2.0 2.0 0.00 0.06 0.06 49 1010.0
20260508231110 53 43 1.0 1.0 0.00 0.06 0.06 49 1009.9
20260508230606 53 58 1.0 2.0 0.00 0.06 0.06 48 1009.9
20260508225601 53 21 3.0 4.0 0.00 0.06 0.06 50 1010.1
20260508225057 53 85 1.0 2.0 0.00 0.06 0.06 49 1009.9
20260508224555 53 44 1.0 2.0 0.00 0.06 0.06 47 1009.8
20260508224052 54 28 4.0 4.0 0.00 0.06 0.06 47 1009.9
20260508223550 54 17 3.0 4.0 0.00 0.06 0.06 48 1009.9
20260508223046 54 322 1.0 2.0 0.00 0.06 0.06 46 1009.9
20260508222544 54 38 3.0 3.0 0.00 0.06 0.06 48 1009.9
20260508222041 54 356 5.0 7.0 0.00 0.06 0.06 47 1010.0
20260508221537 54 356 4.0 4.0 0.00 0.06 0.06 47 1009.9
20260508221033 55 359 4.0 4.0 0.00 0.06 0.06 50 1009.8
20260508220530 55 307 4.0 4.0 0.00 0.06 0.06 45 1009.9
20260508220026 53 27 1.0 2.0 0.00 0.06 0.06 47 1010.0
20260508215523 54 19 4.0 4.0 0.00 0.06 0.06 46 1010.0
20260508215020 52 28 0.0 0.0 0.00 0.06 0.06 49 1010.1
20260508214517 53 28 3.0 4.0 0.00 0.06 0.06 48 1010.1
20260508214013 52 302 2.0 3.0 0.00 0.06 0.06 48 1010.2
20260508213511 53 26 2.0 2.0 0.00 0.06 0.06 51 1010.0
20260508213007 54 329 3.0 4.0 0.00 0.06 0.06 47 1010.2
20260508212503 53 353 2.0 2.0 0.00 0.06 0.06 47 1010.1
20260508211959 52 302 1.0 2.0 0.00 0.06 0.06 51 1010.1
20260508211455 52 320 2.0 2.0 0.00 0.06 0.06 47 1010.1
20260508210952 53 261 3.0 4.0 0.00 0.06 0.06 48 1010.1
20260508210449 54 247 1.0 2.0 0.00 0.06 0.06 51 1010.1
20260508205945 53 34 1.0 3.0 0.00 0.06 0.06 49 1010.3
20260508205442 54 343 4.0 6.0 0.00 0.06 0.06 48 1010.0
20260508204938 53 276 4.0 6.0 0.00 0.06 0.06 48 1010.2
20260508204436 53 294 4.0 6.0 0.00 0.06 0.06 46 1010.3
20260508203931 53 5 4.0 6.0 0.00 0.06 0.06 45 1010.2
20260508203428 53 281 8.0 9.0 0.00 0.06 0.06 49 1010.4
20260508202923 52 5 6.0 7.0 0.00 0.06 0.06 49 1010.7
20260508202421 53 322 5.0 7.0 0.00 0.06 0.06 46 1010.7
20260508201918 52 228 2.0 3.0 0.00 0.06 0.06 47 1010.5
20260508201415 53 259 5.0 6.0 0.00 0.06 0.06 50 1010.4
20260508200911 53 339 3.0 3.0 0.00 0.06 0.06 53 1010.5
20260508200408 53 295 6.0 8.0 0.00 0.06 0.06 47 1010.9
20260508195903 51 312 6.0 8.0 0.00 0.06 0.06 50 1010.6
20260508195401 51 2 6.0 7.0 0.00 0.06 0.06 50 1010.9
20260508194857 53 346 4.0 4.0 0.00 0.06 0.06 51 1010.9
20260508194354 53 294 6.0 7.0 0.00 0.06 0.06 53 1010.8
20260508193851 52 328 7.0 8.0 0.00 0.06 0.06 56 1010.8
20260508193348 52 254 4.0 6.0 0.00 0.06 0.06 51 1011.0
20260508192844 51 321 4.0 7.0 0.00 0.06 0.06 57 1010.9
20260508192341 50 14 5.0 6.0 0.00 0.06 0.06 57 1011.0
20260508191838 49 6 6.0 8.0 0.00 0.06 0.06 61 1011.2
20260508191336 48 354 3.0 3.0 0.00 0.06 0.06 62 1011.3
20260508190832 48 4 8.0 9.0 0.00 0.06 0.06 61 1011.1
20260508190329 49 1 4.0 4.0 0.00 0.06 0.06 60 1011.1
20260508185825 49 305 7.0 8.0 0.00 0.06 0.06 58 1011.2
20260508185323 49 348 5.0 6.0 0.00 0.06 0.06 57 1011.4
20260508184820 49 309 4.0 4.0 0.00 0.06 0.06 62 1011.3
20260508184317 49 279 3.0 3.0 0.00 0.06 0.06 60 1011.6
20260508183814 51 234 8.0 10.0 0.00 0.06 0.06 57 1011.9
20260508183310 50 285 3.0 6.0 0.00 0.06 0.06 67 1011.5
20260508182806 50 265 6.0 7.0 0.00 0.06 0.06 68 1012.0
20260508182306 50 181 7.0 9.0 0.00 0.06 0.06 64 1012.0
20260508181759 48 199 4.0 4.0 0.00 0.06 0.06 64 1011.9
20260508181256 48 230 4.0 4.0 0.00 0.06 0.06 65 1012.0
20260508180753 49 243 3.0 4.0 0.00 0.06 0.06 66 1011.9
20260508180250 49 324 4.0 6.0 0.00 0.06 0.06 66 1011.9
20260508175746 48 338 3.0 4.0 0.00 0.06 0.06 68 1012.1
20260508175242 47 276 3.0 6.0 0.00 0.06 0.06 69 1012.0
20260508174741 48 233 3.0 3.0 0.00 0.06 0.06 72 1011.8
20260508174238 47 235 3.0 4.0 0.00 0.06 0.06 75 1012.0
20260508173734 47 250 6.0 8.0 0.00 0.06 0.06 72 1012.0
20260508173230 46 147 1.0 3.0 0.00 0.06 0.06 77 1012.1
20260508172727 47 320 3.0 3.0 0.00 0.06 0.06 74 1012.1
20260508172224 48 290 3.0 4.0 0.00 0.06 0.06 72 1012.0
20260508171721 48 264 4.0 6.0 0.00 0.06 0.06 74 1011.6